weather.gov     
National Weather Service

Regional Weather Roundup
NWS Homepage
This page is being discontinued on March 12, 2014.
The same data is available at this site. Please update your bookmarks.
Thank you, and we apologize for the inconvenience.
Please send an email to SR-SRH.Webmaster@noaa.gov with any concerns.


Current Version
Previous Version:    01  02  03  04  05  06  07  08  09  10  11  12  13  14  15  16  17  18  19  20  21  22  23  24  25  26  
[Printable]
401
ASUS44 KBMX 240710
RWRAL

ALABAMA REGIONAL WEATHER ROUNDUP
NATIONAL WEATHER SERVICE BIRMINGHAM AL
200 AM CDT FRI OCT 24 2014

NOTE: "FAIR" INDICATES FEW OR NO CLOUDS BELOW 12,000 FEET
WITH NO SIGNIFICANT WEATHER AND/OR OBSTRUCTIONS TO VISIBILITY.

THE REMARK "TC" DENOTES TEMPERATURE IN DEGREES CELSIUS.

ALZ001>011-014-016>018-020-240800-
NORTH ALABAMA

CITY           SKY/WX    TMP DP  RH WIND       PRES   REMARKS
MUSCLE SHOALS  CLOUDY    51  47  86 W5        30.11S
HUNTSVILLE     CLOUDY    53  44  71 CALM      30.09F
DECATUR        CLOUDY    51  45  79 CALM      30.10F
HALEYVILLE     FAIR      53  45  74 CALM      30.11S
GADSDEN        CLOUDY    50  45  81 CALM      30.08F
$$

ALZ012-013-022-023-030>036-040>044-240800-
WEST CENTRAL ALABAMA

CITY           SKY/WX    TMP DP  RH WIND       PRES   REMARKS
TUSCALOOSA     CLOUDY    53  50  89 CALM      30.09S
$$

ALZ015-024>027-033>036-040>044-240800-
CENTRAL ALABAMA

CITY           SKY/WX    TMP DP  RH WIND       PRES   REMARKS
BIRMINGHAM     CLOUDY    53  48  83 CALM      30.09S
MONTGOMERY     PTCLDY    50  46  86 W5        30.07R
SHELBY CO ARPT CLOUDY    54  50  86 CALM      30.07F
MAXWELL AFB    CLOUDY    50  50  99 NW2       30.06R
GREENVILLE     FAIR      51  47  86 N5        30.05F
$$

ALZ019-021-028-029-037-038-045>048-240800-
EAST CENTRAL ALABAMA

CITY           SKY/WX    TMP DP  RH WIND       PRES   REMARKS
ANNISTON       CLOUDY    50  47  89 CALM      30.08F
ALEXANDER CITY MOCLDY    49  47  93 CALM      30.06S
AUBURN         MOCLDY    52  43  71 N6        30.07F
$$

ALZ051>064-240800-
SOUTHWEST ALABAMA

CITY           SKY/WX    TMP DP  RH WIND       PRES   REMARKS
MOBILE         PTCLDY    55  47  74 N6        30.07R
BROOKLEY FIELD PTCLDY    54  48  80 NW6       30.07S
EVERGREEN      CLOUDY    57  48  72 N3        30.06F
$$

ALZ049-050-065>069-240800-
SOUTHEAST ALABAMA

CITY           SKY/WX    TMP DP  RH WIND       PRES   REMARKS
DOTHAN         CLOUDY    54  50  86 CALM      30.07S
OZARK          CLOUDY    55  50  84 CALM      30.04S
TROY           MOCLDY    48  46  93 CALM      30.06S
EUFAULA        FAIR      49  47  93 CALM      30.04R
$$




U.S. Dept. of Commerce
NOAA National Weather Service
1325 East West Highway
Silver Spring, MD 20910
E-mail: w-nws.webmaster@noaa.gov
Page last modified: May 16, 2007
NATIONAL WEATHER SERVICE: for Safety, for Work, for Fun - FOR LIFE